Weather History for Norwood, MA

Change the Weather History Date:

Thursday, March 7, 2013

  Actual Average Record
Temperature  
Mean Temperature 34 °F -  
Max Temperature 37 °F 40 °F 63 °F (2012)
Min Temperature 30 °F 23 °F -5 °F (2003)
Degree Days  
Heating Degree Days 32    
Moisture  
Dew Point 31 °F    
Average Humidity 91    
Maximum Humidity 100    
Minimum Humidity 73    
Precipitation  
Precipitation 0.30 in - - ()
Sea Level Pressure  
Sea Level Pressure 30.00 in    
Wind  
Wind Speed 16 mph (NNE)    
Max Wind Speed 23 mph    
Max Gust Speed 33 mph    
Visibility 1 miles    
Events Fog , Snow    
Averages and records for this station are not official NWS values.
T = Trace of Precipitation, MM = Missing Value Source: NWS Daily Summary

Daily Weather History Graph

Daily Weather History Graph

Search for Another Location

Airport:

Trip Planner

Search our weather history database for the weather conditions in past years. The results will help you decide how hot, cold, wet, or windy it might be!

Date:

Astronomy

Mar. 07, 2013 Rise Set
Actual Time 6:09 AM EST 5:42 PM EST
Civil Twilight 5:41 AM EST 6:10 PM EST
Nautical Twilight 5:09 AM EST 6:42 PM EST
Astronomical Twilight 4:36 AM EST 7:15 PM EST
Moon 3:11 AM EST (3/7) 1:22 PM EST (3/7)
Length of Visible Light 12h 28m
Length of Day
11h 32m
Waning Crescent, 20% of the Moon is Illuminated
Mar 7
Waning Crescent
Mar 11
New
Mar 19
First Quarter
Mar 27
Full
Apr 3
Last Quarter

Hourly Weather History & Observations

Time (EST) Temp. Windchill Dew Point Humidity Pressure Visibility Wind Dir Wind Speed Gust Speed Precip Events Conditions
12:20 AM 37.4 °F 26.4 °F 30.2 °F 75% 30.03 in 7.0 mi NE 23.0 mph 31.1 mph 0.00 in   Overcast
12:53 AM 37.0 °F 27.0 °F 30.0 °F 76% 30.03 in 10.0 mi NNE 18.4 mph 26.5 mph 0.00 in   Overcast
1:53 AM 37.0 °F 27.0 °F 28.9 °F 73% 30.00 in 10.0 mi NE 18.4 mph 33.4 mph 0.00 in   Overcast
2:53 AM 35.1 °F 25.9 °F 30.0 °F 82% 29.99 in 2.0 mi NE 13.8 mph 33.4 mph 0.01 in Snow Light Snow
3:00 AM 35.6 °F 26.6 °F 30.2 °F 81% 29.99 in 1.5 mi NNE 13.8 mph 26.5 mph 0.00 in Snow Light Snow
3:44 AM 33.8 °F 24.3 °F 32.0 °F 93% 29.99 in 1.2 mi NNE 13.8 mph 25.3 mph 0.02 in Snow Light Snow
3:53 AM 34.0 °F 23.8 °F 32.0 °F 92% 29.99 in 1.0 mi NNE 16.1 mph 29.9 mph 0.02 in Snow Light Snow
4:01 AM 33.8 °F 24.3 °F 32.0 °F 93% 29.99 in 0.8 mi NNE 13.8 mph 25.3 mph 0.01 in Snow Light Snow
4:16 AM 33.8 °F 24.3 °F 32.0 °F 93% 29.99 in 1.2 mi NNE 13.8 mph 26.5 mph 0.02 in Snow Light Snow
4:27 AM 33.8 °F 23.5 °F 32.0 °F 93% 29.98 in 1.0 mi NNE 16.1 mph 25.3 mph 0.02 in Snow Light Snow
4:53 AM 33.1 °F 23.4 °F 32.0 °F 96% 29.99 in 1.0 mi North 13.8 mph 21.9 mph 0.03 in Snow Light Snow
5:53 AM 33.1 °F 22.6 °F 30.9 °F 92% 30.01 in 1.0 mi North 16.1 mph 23.0 mph 0.01 in Snow Light Snow
5:59 AM 33.8 °F 24.3 °F 30.2 °F 87% 30.01 in 0.8 mi NNE 13.8 mph 23.0 mph 0.00 in Snow Light Snow
6:53 AM 32.0 °F 23.6 °F 30.9 °F 96% 30.01 in 0.2 mi NNE 10.4 mph 25.3 mph 0.04 in Fog , Snow Snow
7:53 AM 32.0 °F 22.1 °F 30.9 °F 96% 30.01 in 0.5 mi North 13.8 mph 19.6 mph 0.03 in Fog , Snow Snow
8:42 AM 32.0 °F 22.5 °F 30.2 °F 93% 30.01 in 0.5 mi North 12.7 mph 25.3 mph 0.01 in Fog , Snow Light Snow
8:53 AM 33.1 °F 23.4 °F 30.9 °F 92% 30.00 in 0.5 mi North 13.8 mph 21.9 mph 0.01 in Fog , Snow Light Snow
9:36 AM 33.8 °F 24.3 °F 32.0 °F 93% 29.99 in 0.8 mi NNE 13.8 mph 24.2 mph 0.01 in Snow Light Snow
9:53 AM 34.0 °F 24.2 °F 32.0 °F 92% 30.00 in 0.8 mi NNE 15.0 mph 24.2 mph 0.01 in Snow Light Snow
10:18 AM 33.8 °F 22.5 °F 32.0 °F 93% 30.00 in 0.8 mi NNE 19.6 mph 29.9 mph 0.00 in Snow Light Snow
10:53 AM 34.0 °F 23.4 °F 30.9 °F 89% 30.00 in 0.8 mi NNE 17.3 mph 28.8 mph 0.01 in Snow Light Snow
11:08 AM 33.8 °F 22.5 °F 30.2 °F 87% 30.00 in 1.0 mi NNE 19.6 mph 28.8 mph 0.00 in Snow Light Snow
11:17 AM 33.8 °F 23.5 °F 32.0 °F 93% 30.00 in 0.5 mi NNE 16.1 mph 28.8 mph 0.00 in Fog , Snow Snow
11:53 AM 34.0 °F 23.8 °F 32.0 °F 92% 30.01 in 0.8 mi NNE 16.1 mph 27.6 mph 0.01 in Snow Light Snow
11:56 AM 33.8 °F 23.9 °F 32.0 °F 93% 30.00 in 1.0 mi NNE 15.0 mph 27.6 mph 0.00 in Snow Light Snow
12:23 PM 33.8 °F 23.5 °F 32.0 °F 93% 30.00 in 0.8 mi NNE 16.1 mph 28.8 mph 0.00 in Snow Light Snow
12:53 PM 34.0 °F 23.4 °F 32.0 °F 92% 30.00 in 1.0 mi NNE 17.3 mph 32.2 mph 0.01 in Snow Light Snow
1:02 PM 33.8 °F 22.5 °F 32.0 °F 93% 30.00 in 1.0 mi North 19.6 mph 25.3 mph 0.00 in Snow Light Snow
1:16 PM 33.8 °F 24.8 °F 32.0 °F 93% 30.00 in 1.0 mi NNE 12.7 mph 28.8 mph 0.00 in Snow Light Snow
1:25 PM 33.8 °F 23.2 °F 32.0 °F 93% 30.00 in 0.8 mi North 17.3 mph 27.6 mph 0.00 in Snow Light Snow
1:53 PM 34.0 °F 23.4 °F 32.0 °F 92% 30.00 in 0.5 mi North 17.3 mph 25.3 mph 0.00 in Fog , Snow Light Snow
2:31 PM 33.8 °F 23.5 °F 30.2 °F 87% 30.00 in 0.5 mi NNE 16.1 mph 29.9 mph 0.01 in Fog , Snow Snow
2:51 PM 33.8 °F 23.9 °F 30.2 °F 87% 30.00 in 0.5 mi NNE 15.0 mph 29.9 mph 0.01 in Fog , Snow Light Snow
2:53 PM 33.1 °F 22.6 °F 30.9 °F 92% 30.01 in 0.5 mi NNE 16.1 mph 26.5 mph 0.01 in Fog , Snow Light Snow
3:05 PM 33.8 °F 24.3 °F 32.0 °F 93% 30.00 in 0.8 mi North 13.8 mph 20.7 mph 0.00 in Snow Light Snow
3:53 PM 33.1 °F 23.0 °F 30.9 °F 92% 30.01 in 0.5 mi NNE 15.0 mph 24.2 mph 0.01 in Fog , Snow Snow
4:13 PM 33.8 °F 24.3 °F 30.2 °F 87% 30.00 in 0.5 mi North 13.8 mph 29.9 mph 0.01 in Fog , Snow Snow
4:53 PM 33.1 °F 23.9 °F 30.9 °F 92% 30.01 in 0.5 mi North 12.7 mph 21.9 mph 0.02 in Fog , Snow Snow
5:09 PM 33.8 °F 25.3 °F 30.2 °F 87% 30.01 in 1.0 mi North 11.5 mph 19.6 mph 0.00 in Snow Light Snow
5:18 PM 32.0 °F 23.0 °F 30.2 °F 93% 30.01 in 1.0 mi North 11.5 mph 21.9 mph 0.00 in Snow Light Snow
5:27 PM 32.0 °F 23.0 °F 30.2 °F 93% 30.01 in 1.2 mi North 11.5 mph 21.9 mph 0.00 in Snow Light Snow
5:37 PM 32.0 °F 23.0 °F 30.2 °F 93% 30.01 in 1.2 mi North 11.5 mph 26.5 mph 0.00 in Snow Light Snow
5:51 PM 32.0 °F 21.6 °F 30.2 °F 93% 30.01 in 1.5 mi North 15.0 mph 25.3 mph 0.00 in Snow Light Snow
5:53 PM 32.0 °F 21.6 °F 30.0 °F 92% 30.01 in 1.2 mi North 15.0 mph 25.3 mph 0.00 in Snow Light Snow
6:53 PM 32.0 °F 22.5 °F 28.9 °F 88% 30.01 in 1.5 mi North 12.7 mph 20.7 mph 0.00 in Snow Light Snow
7:42 PM 32.0 °F 22.5 °F 28.4 °F 87% 30.01 in 2.0 mi North 12.7 mph 23.0 mph 0.01 in Snow Light Snow
7:50 PM 32.0 °F 23.0 °F 28.4 °F 87% 30.01 in 1.2 mi North 11.5 mph 21.9 mph 0.01 in Snow Light Snow
7:53 PM 32.0 °F 21.6 °F 28.9 °F 88% 30.01 in 1.0 mi North 15.0 mph 23.0 mph 0.01 in Snow Light Snow
8:48 PM 30.2 °F 20.8 °F 30.2 °F 100% 30.00 in 0.8 mi North 11.5 mph 19.6 mph 0.01 in Snow Light Snow
8:53 PM 30.9 °F 22.2 °F 30.0 °F 96% 30.00 in 0.8 mi North 10.4 mph 18.4 mph 0.01 in Snow Light Snow
9:12 PM 30.2 °F 19.3 °F 28.4 °F 93% 29.99 in 1.0 mi North 15.0 mph 21.9 mph 0.00 in Snow Light Snow
9:53 PM 30.9 °F 22.2 °F 30.0 °F 96% 29.99 in 1.0 mi North 10.4 mph 18.4 mph 0.01 in Snow Light Snow
10:30 PM 30.2 °F 20.8 °F 30.2 °F 100% 29.98 in 0.8 mi North 11.5 mph 18.4 mph 0.01 in Snow Light Snow
10:53 PM 30.9 °F 22.2 °F 30.0 °F 96% 29.98 in 0.8 mi North 10.4 mph 21.9 mph 0.02 in Snow Light Snow
11:53 PM 30.9 °F 22.8 °F 30.0 °F 96% 29.97 in 0.8 mi North 9.2 mph - 0.02 in Snow Light Snow